| time (UTC) | temp F | wind direction | speed MPH | gust MPH | rain 1hr in | rain 24hr in | rain mn in | humidity % | barometer mb |
| 20260904143603 | 84 | 155 | 13.0 | 18.0 | 0.00 | 0.00 | 0.00 | 73 | 1011.8 |
| 20260904142703 | 83 | 160 | 11.0 | 17.0 | 0.00 | 0.00 | 0.00 | 74 | 1011.6 |
| 20260904141803 | 82 | 157 | 11.0 | 20.0 | 0.00 | 0.00 | 0.00 | 76 | 1011.6 |
| 20260904141116 | 82 | 154 | 10.0 | 15.0 | 0.00 | 0.00 | 0.00 | 77 | 1011.5 |
| 20260904140213 | 80 | 147 | 11.0 | 15.0 | 0.00 | 0.00 | 0.00 | 79 | 1011.5 |
| 20260904135615 | 80 | 142 | 11.0 | 15.0 | 0.00 | 0.00 | 0.00 | 79 | 1011.5 |
| 20260904134503 | 79 | 140 | 9.0 | 14.0 | 0.00 | 0.00 | 0.00 | 81 | 1011.5 |
| 20260904133603 | 78 | 132 | 9.0 | 13.0 | 0.00 | 0.00 | 0.00 | 82 | 1011.5 |
| 20260904132917 | 78 | 129 | 10.0 | 12.0 | 0.00 | 0.00 | 0.00 | 82 | 1011.5 |
| 20260904131803 | 77 | 135 | 8.0 | 12.0 | 0.00 | 0.00 | 0.00 | 83 | 1011.5 |
| 20260904130903 | 76 | 135 | 7.0 | 11.0 | 0.00 | 0.00 | 0.00 | 84 | 1011.4 |
| 20260904130214 | 76 | 138 | 8.0 | 11.0 | 0.00 | 0.00 | 0.00 | 85 | 1011.5 |
| 20260904125616 | 75 | 139 | 8.0 | 11.0 | 0.00 | 0.00 | 0.00 | 86 | 1011.5 |
| 20260904124503 | 74 | 137 | 8.0 | 10.0 | 0.00 | 0.00 | 0.00 | 88 | 1011.4 |
| 20260904123604 | 74 | 137 | 7.0 | 9.0 | 0.00 | 0.00 | 0.00 | 88 | 1011.3 |
| 20260904122913 | 74 | 135 | 6.0 | 9.0 | 0.00 | 0.00 | 0.00 | 88 | 1011.3 |
| 20260904122015 | 74 | 137 | 6.0 | 8.0 | 0.00 | 0.00 | 0.00 | 88 | 1011.2 |
| 20260904121112 | 73 | 133 | 7.0 | 9.0 | 0.00 | 0.00 | 0.00 | 88 | 1011.1 |
| 20260904120003 | 73 | 126 | 8.0 | 10.0 | 0.00 | 0.00 | 0.00 | 88 | 1010.9 |
| 20260904115616 | 73 | 120 | 8.0 | 10.0 | 0.00 | 0.00 | 0.00 | 88 | 1010.9 |
| 20260904114714 | 73 | 115 | 7.0 | 10.0 | 0.00 | 0.00 | 0.00 | 88 | 1010.7 |
| 20260904113816 | 73 | 111 | 8.0 | 10.0 | 0.00 | 0.00 | 0.00 | 89 | 1010.6 |
| 20260904112703 | 73 | 130 | 8.0 | 10.0 | 0.00 | 0.00 | 0.00 | 89 | 1010.6 |
| 20260904112016 | 73 | 132 | 7.0 | 9.0 | 0.00 | 0.00 | 0.00 | 89 | 1010.6 |
| 20260904111113 | 73 | 129 | 5.0 | 8.0 | 0.00 | 0.00 | 0.00 | 88 | 1010.6 |
| 20260904110003 | 73 | 128 | 7.0 | 9.0 | 0.00 | 0.00 | 0.00 | 88 | 1010.7 |
| 20260904105617 | 73 | 129 | 8.0 | 9.0 | 0.00 | 0.00 | 0.00 | 88 | 1010.6 |
| 20260904104714 | 73 | 132 | 5.0 | 9.0 | 0.00 | 0.00 | 0.00 | 87 | 1010.7 |
| 20260904103817 | 73 | 131 | 4.0 | 5.0 | 0.00 | 0.00 | 0.00 | 88 | 1010.7 |
| 20260904102914 | 73 | 132 | 4.0 | 5.0 | 0.00 | 0.00 | 0.00 | 87 | 1010.7 |
| 20260904102016 | 73 | 130 | 4.0 | 5.0 | 0.00 | 0.00 | 0.00 | 87 | 1010.7 |
| 20260904101114 | 74 | 129 | 5.0 | 7.0 | 0.00 | 0.00 | 0.00 | 87 | 1010.7 |
| 20260904100004 | 74 | 132 | 6.0 | 8.0 | 0.00 | 0.00 | 0.00 | 87 | 1010.7 |
| 20260904095613 | 74 | 132 | 6.0 | 8.0 | 0.00 | 0.00 | 0.00 | 87 | 1010.7 |
| 20260904094503 | 74 | 131 | 7.0 | 8.0 | 0.00 | 0.00 | 0.00 | 87 | 1010.6 |
| 20260904093603 | 74 | 132 | 7.0 | 9.0 | 0.00 | 0.00 | 0.00 | 87 | 1010.5 |
| 20260904092915 | 74 | 134 | 7.0 | 8.0 | 0.00 | 0.00 | 0.00 | 86 | 1010.5 |
| 20260904091803 | 74 | 147 | 5.0 | 6.0 | 0.00 | 0.00 | 0.00 | 86 | 1010.4 |
| 20260904091114 | 74 | 148 | 5.0 | 6.0 | 0.00 | 0.00 | 0.00 | 86 | 1010.3 |
| 20260904090217 | 74 | 144 | 5.0 | 8.0 | 0.00 | 0.00 | 0.00 | 86 | 1010.2 |
| 20260904085613 | 74 | 140 | 5.0 | 8.0 | 0.00 | 0.00 | 0.00 | 86 | 1010.2 |
| 20260904084716 | 74 | 136 | 6.0 | 8.0 | 0.00 | 0.00 | 0.00 | 85 | 1010.2 |
| 20260904083603 | 74 | 139 | 5.0 | 7.0 | 0.00 | 0.00 | 0.00 | 84 | 1010.2 |
| 20260904082915 | 75 | 140 | 5.0 | 7.0 | 0.00 | 0.00 | 0.00 | 84 | 1010.2 |
| 20260904081803 | 75 | 142 | 5.0 | 8.0 | 0.00 | 0.00 | 0.00 | 83 | 1010.1 |
| 20260904080903 | 76 | 136 | 4.0 | 7.0 | 0.00 | 0.00 | 0.00 | 82 | 1010.1 |
| 20260904080212 | 76 | 133 | 5.0 | 8.0 | 0.00 | 0.00 | 0.00 | 81 | 1010.1 |
| 20260904075403 | 77 | 131 | 7.0 | 9.0 | 0.00 | 0.00 | 0.00 | 80 | 1010.1 |
| 20260904074716 | 77 | 131 | 8.0 | 9.0 | 0.00 | 0.00 | 0.00 | 79 | 1010.1 |
| 20260904073603 | 78 | 134 | 8.0 | 10.0 | 0.00 | 0.00 | 0.00 | 78 | 1010.1 |
| 20260904072916 | 78 | 135 | 9.0 | 10.0 | 0.00 | 0.00 | 0.00 | 77 | 1010.1 |
| 20260904072013 | 79 | 138 | 8.0 | 11.0 | 0.00 | 0.00 | 0.00 | 76 | 1010.1 |
| 20260904071116 | 80 | 143 | 8.0 | 11.0 | 0.00 | 0.00 | 0.00 | 75 | 1010.1 |
| 20260904070213 | 80 | 142 | 9.0 | 11.0 | 0.00 | 0.00 | 0.00 | 73 | 1010.0 |
| 20260904065614 | 80 | 143 | 9.0 | 11.0 | 0.00 | 0.00 | 0.00 | 73 | 1010.1 |
| 20260904064717 | 81 | 143 | 10.0 | 13.0 | 0.00 | 0.00 | 0.00 | 72 | 1010.1 |
| 20260904063603 | 81 | 145 | 11.0 | 14.0 | 0.00 | 0.00 | 0.00 | 71 | 1010.0 |
| 20260904062917 | 82 | 144 | 11.0 | 17.0 | 0.00 | 0.00 | 0.00 | 70 | 1010.0 |
| 20260904062014 | 82 | 144 | 12.0 | 18.0 | 0.00 | 0.00 | 0.00 | 70 | 1010.0 |
| 20260904061116 | 82 | 142 | 13.0 | 19.0 | 0.00 | 0.00 | 0.00 | 69 | 1010.0 |
| 20260904060213 | 83 | 143 | 14.0 | 19.0 | 0.00 | 0.00 | 0.00 | 68 | 1009.9 |
| 20260904055615 | 83 | 141 | 14.0 | 19.0 | 0.00 | 0.00 | 0.00 | 68 | 1009.9 |
| 20260904054503 | 83 | 138 | 14.0 | 19.0 | 0.00 | 0.00 | 0.00 | 67 | 1009.8 |
| 20260904053815 | 82 | 137 | 13.0 | 17.0 | 0.00 | 0.00 | 0.00 | 67 | 1009.7 |
| 20260904052703 | 82 | 134 | 13.0 | 19.0 | 0.00 | 0.00 | 0.00 | 67 | 1009.6 |
| 20260904051803 | 82 | 131 | 12.0 | 18.0 | 0.00 | 0.00 | 0.00 | 67 | 1009.5 |
| 20260904051117 | 82 | 130 | 12.0 | 17.0 | 0.00 | 0.00 | 0.00 | 67 | 1009.5 |
| 20260904050003 | 82 | 131 | 12.0 | 16.0 | 0.00 | 0.00 | 0.00 | 67 | 1009.3 |
| 20260904045403 | 82 | 131 | 12.0 | 16.0 | 0.00 | 0.00 | 0.00 | 67 | 1009.4 |
| 20260904044503 | 82 | 129 | 12.0 | 16.0 | 0.00 | 0.00 | 0.00 | 67 | 1009.4 |
| 20260904043815 | 82 | 130 | 13.0 | 17.0 | 0.00 | 0.00 | 0.00 | 67 | 1009.3 |
| 20260904042913 | 82 | 128 | 12.0 | 17.0 | 0.00 | 0.00 | 0.00 | 67 | 1009.3 |
| 20260904042015 | 83 | 127 | 13.0 | 17.0 | 0.00 | 0.00 | 0.00 | 66 | 1009.3 |
| 20260904041112 | 83 | 127 | 14.0 | 18.0 | 0.00 | 0.00 | 0.00 | 65 | 1009.2 |
| 20260904040215 | 83 | 127 | 14.0 | 18.0 | 0.00 | 0.00 | 0.00 | 65 | 1009.2 |
| 20260904035403 | 83 | 127 | 15.0 | 18.0 | 0.00 | 0.00 | 0.00 | 65 | 1009.2 |
| 20260904034714 | 84 | 125 | 15.0 | 19.0 | 0.00 | 0.00 | 0.00 | 65 | 1009.1 |
| 20260904033603 | 84 | 127 | 15.0 | 19.0 | 0.00 | 0.00 | 0.00 | 63 | 1009.0 |
| 20260904032913 | 85 | 127 | 15.0 | 21.0 | 0.00 | 0.00 | 0.00 | 62 | 1009.1 |
| 20260904032016 | 85 | 124 | 15.0 | 19.0 | 0.00 | 0.00 | 0.00 | 62 | 1008.9 |
| 20260904031113 | 85 | 120 | 14.0 | 17.0 | 0.00 | 0.00 | 0.00 | 62 | 1008.9 |
| 20260904030216 | 85 | 119 | 13.0 | 16.0 | 0.00 | 0.00 | 0.00 | 62 | 1008.8 |
| 20260904025403 | 84 | 117 | 12.0 | 15.0 | 0.00 | 0.00 | 0.00 | 62 | 1008.6 |
| 20260904024714 | 84 | 115 | 12.0 | 14.0 | 0.00 | 0.00 | 0.00 | 61 | 1008.6 |
| 20260904023603 | 85 | 120 | 12.0 | 15.0 | 0.00 | 0.00 | 0.00 | 59 | 1008.5 |
| 20260904022703 | 86 | 122 | 12.0 | 15.0 | 0.00 | 0.00 | 0.00 | 59 | 1008.4 |
| 20260904021803 | 86 | 120 | 12.0 | 16.0 | 0.00 | 0.00 | 0.00 | 58 | 1008.4 |
| 20260904020903 | 86 | 120 | 12.0 | 15.0 | 0.00 | 0.00 | 0.00 | 57 | 1008.2 |
| 20260904020216 | 87 | 121 | 12.0 | 15.0 | 0.00 | 0.00 | 0.00 | 57 | 1008.1 |
| 20260904015403 | 87 | 122 | 12.0 | 15.0 | 0.00 | 0.00 | 0.00 | 56 | 1008.0 |
| 20260904014715 | 88 | 123 | 13.0 | 15.0 | 0.00 | 0.00 | 0.00 | 55 | 1007.9 |
| 20260904013817 | 88 | 123 | 13.0 | 18.0 | 0.00 | 0.00 | 0.00 | 55 | 1007.7 |
| 20260904012915 | 89 | 124 | 13.0 | 17.0 | 0.00 | 0.00 | 0.00 | 54 | 1007.5 |
| 20260904012017 | 89 | 124 | 13.0 | 16.0 | 0.00 | 0.00 | 0.00 | 54 | 1007.5 |
| 20260904011114 | 90 | 123 | 14.0 | 19.0 | 0.00 | 0.00 | 0.00 | 52 | 1007.3 |
| 20260904010217 | 90 | 124 | 14.0 | 19.0 | 0.00 | 0.00 | 0.00 | 52 | 1007.3 |
| 20260904005613 | 91 | 122 | 14.0 | 18.0 | 0.00 | 0.00 | 0.00 | 52 | 1007.3 |
| 20260904004503 | 91 | 121 | 13.0 | 17.0 | 0.00 | 0.00 | 0.00 | 51 | 1007.3 |
| 20260904003603 | 92 | 122 | 13.0 | 17.0 | 0.00 | 0.00 | 0.00 | 51 | 1007.2 |
| 20260904002915 | 92 | 121 | 13.0 | 20.0 | 0.00 | 0.00 | 0.00 | 50 | 1007.2 |
| 20260904001803 | 93 | 123 | 15.0 | 20.0 | 0.00 | 0.00 | 0.00 | 49 | 1007.2 |
| 20260904001115 | 94 | 123 | 15.0 | 20.0 | 0.00 | 0.00 | 0.00 | 48 | 1007.2 |
| 20260904000003 | 95 | 122 | 15.0 | 20.0 | 0.00 | 0.00 | 0.00 | 48 | 1007.2 |
| 20260903235614 | 95 | 122 | 16.0 | 20.0 | 0.00 | 0.00 | 0.00 | 48 | 1007.1 |
| 20260903234716 | 96 | 122 | 14.0 | 18.0 | 0.00 | 0.00 | 0.00 | 48 | 1007.0 |
| 20260903233813 | 97 | 126 | 13.0 | 20.0 | 0.00 | 0.00 | 0.00 | 45 | 1007.1 |
| 20260903232916 | 98 | 128 | 16.0 | 23.0 | 0.00 | 0.00 | 0.00 | 43 | 1007.2 |
| 20260903232013 | 98 | 129 | 15.0 | 23.0 | 0.00 | 0.00 | 0.00 | 41 | 1007.0 |
| 20260903230903 | 99 | 130 | 17.0 | 23.0 | 0.00 | 0.00 | 0.00 | 41 | 1007.0 |
| 20260903230213 | 99 | 132 | 16.0 | 23.0 | 0.00 | 0.00 | 0.00 | 42 | 1007.1 |
| 20260903225404 | 99 | 136 | 17.0 | 26.0 | 0.00 | 0.00 | 0.00 | 41 | 1007.0 |
| 20260903224717 | 100 | 134 | 17.0 | 23.0 | 0.00 | 0.00 | 0.00 | 40 | 1006.9 |
| 20260903223603 | 100 | 136 | 17.0 | 25.0 | 0.00 | 0.00 | 0.00 | 41 | 1006.9 |
| 20260903222703 | 100 | 132 | 18.0 | 27.0 | 0.00 | 0.00 | 0.00 | 41 | 1006.9 |
| 20260903221803 | 100 | 134 | 18.0 | 25.0 | 0.00 | 0.00 | 0.00 | 40 | 1006.9 |
| 20260903220903 | 100 | 135 | 18.0 | 25.0 | 0.00 | 0.00 | 0.00 | 40 | 1006.9 |
| 20260903220003 | 101 | 137 | 17.0 | 25.0 | 0.00 | 0.00 | 0.00 | 41 | 1007.0 |
| 20260903215403 | 101 | 135 | 17.0 | 25.0 | 0.00 | 0.00 | 0.00 | 41 | 1007.1 |
| 20260903214712 | 101 | 136 | 18.0 | 25.0 | 0.00 | 0.00 | 0.00 | 40 | 1007.2 |
| 20260903213603 | 101 | 136 | 18.0 | 26.0 | 0.00 | 0.00 | 0.00 | 40 | 1007.2 |
| 20260903212917 | 101 | 140 | 17.0 | 24.0 | 0.00 | 0.00 | 0.00 | 40 | 1007.2 |
| 20260903212014 | 101 | 140 | 19.0 | 26.0 | 0.00 | 0.00 | 0.00 | 39 | 1007.3 |
| 20260903210903 | 101 | 139 | 18.0 | 29.0 | 0.00 | 0.00 | 0.00 | 40 | 1007.3 |
| 20260903210003 | 101 | 142 | 20.0 | 31.0 | 0.00 | 0.00 | 0.00 | 40 | 1007.3 |
| 20260903205616 | 101 | 144 | 21.0 | 31.0 | 0.00 | 0.00 | 0.00 | 40 | 1007.3 |
| 20260903204713 | 101 | 142 | 19.0 | 27.0 | 0.00 | 0.00 | 0.00 | 40 | 1007.4 |
| 20260903203815 | 101 | 134 | 18.0 | 27.0 | 0.00 | 0.00 | 0.00 | 41 | 1007.4 |
| 20260903202703 | 101 | 133 | 19.0 | 27.0 | 0.00 | 0.00 | 0.00 | 42 | 1007.5 |
| 20260903201803 | 100 | 129 | 19.0 | 29.0 | 0.00 | 0.00 | 0.00 | 42 | 1007.6 |
| 20260903200903 | 100 | 132 | 18.0 | 29.0 | 0.00 | 0.00 | 0.00 | 42 | 1007.6 |
| 20260903200215 | 100 | 139 | 18.0 | 31.0 | 0.00 | 0.00 | 0.00 | 44 | 1007.8 |
| 20260903195616 | 100 | 137 | 20.0 | 29.0 | 0.00 | 0.00 | 0.00 | 42 | 1007.8 |
| 20260903194714 | 100 | 138 | 19.0 | 29.0 | 0.00 | 0.00 | 0.00 | 43 | 1007.8 |
| 20260903193603 | 100 | 142 | 20.0 | 31.0 | 0.00 | 0.00 | 0.00 | 43 | 1007.9 |
| 20260903192913 | 100 | 147 | 22.0 | 31.0 | 0.00 | 0.00 | 0.00 | 44 | 1007.9 |
| 20260903192016 | 99 | 139 | 21.0 | 27.0 | 0.00 | 0.00 | 0.00 | 44 | 1008.0 |
| 20260903190903 | 100 | 141 | 20.0 | 27.0 | 0.00 | 0.00 | 0.00 | 43 | 1008.1 |
| 20260903190003 | 99 | 127 | 22.0 | 30.0 | 0.00 | 0.00 | 0.00 | 45 | 1008.1 |
| 20260903185403 | 99 | 142 | 19.0 | 29.0 | 0.00 | 0.00 | 0.00 | 45 | 1008.3 |
| 20260903184714 | 99 | 149 | 21.0 | 31.0 | 0.00 | 0.00 | 0.00 | 44 | 1008.3 |
| 20260903183603 | 98 | 141 | 21.0 | 29.0 | 0.00 | 0.00 | 0.00 | 46 | 1008.6 |
| 20260903182704 | 98 | 139 | 19.0 | 26.0 | 0.00 | 0.00 | 0.00 | 46 | 1008.7 |
| 20260903182016 | 98 | 141 | 20.0 | 27.0 | 0.00 | 0.00 | 0.00 | 48 | 1008.9 |
| 20260903181114 | 97 | 142 | 21.0 | 29.0 | 0.00 | 0.00 | 0.00 | 47 | 1009.0 |
| 20260903180216 | 96 | 136 | 17.0 | 29.0 | 0.00 | 0.00 | 0.00 | 49 | 1009.2 |
| 20260903175403 | 96 | 133 | 16.0 | 24.0 | 0.00 | 0.00 | 0.00 | 51 | 1009.3 |
| 20260903174715 | 96 | 133 | 18.0 | 25.0 | 0.00 | 0.00 | 0.00 | 50 | 1009.4 |
| 20260903173603 | 96 | 156 | 23.0 | 35.0 | 0.00 | 0.00 | 0.00 | 49 | 1009.6 |
| 20260903172703 | 96 | 144 | 20.0 | 29.0 | 0.00 | 0.00 | 0.00 | 49 | 1009.5 |
| 20260903172017 | 95 | 147 | 21.0 | 29.0 | 0.00 | 0.00 | 0.00 | 50 | 1009.7 |
| 20260903171114 | 95 | 141 | 19.0 | 27.0 | 0.00 | 0.00 | 0.00 | 51 | 1009.8 |
| 20260903170217 | 94 | 145 | 20.0 | 30.0 | 0.00 | 0.00 | 0.00 | 53 | 1009.8 |
| 20260903165403 | 91 | 142 | 18.0 | 27.0 | 0.00 | 0.00 | 0.00 | 57 | 1009.8 |
| 20260903164503 | 91 | 141 | 19.0 | 27.0 | 0.00 | 0.00 | 0.00 | 58 | 1009.9 |
| 20260903163603 | 91 | 141 | 17.0 | 27.0 | 0.00 | 0.00 | 0.00 | 57 | 1010.0 |
| 20260903162703 | 90 | 146 | 19.0 | 28.0 | 0.00 | 0.00 | 0.00 | 59 | 1010.0 |
| 20260903162013 | 90 | 149 | 20.0 | 30.0 | 0.00 | 0.00 | 0.00 | 58 | 1010.0 |
| 20260903160903 | 91 | 153 | 21.0 | 31.0 | 0.00 | 0.00 | 0.00 | 57 | 1009.8 |
| 20260903160003 | 92 | 147 | 21.0 | 30.0 | 0.00 | 0.00 | 0.00 | 55 | 1009.8 |
| 20260903155403 | 92 | 150 | 19.0 | 30.0 | 0.00 | 0.00 | 0.00 | 56 | 1009.8 |
| 20260903154503 | 92 | 150 | 18.0 | 27.0 | 0.00 | 0.00 | 0.00 | 57 | 1009.8 |
| 20260903153604 | 91 | 149 | 18.0 | 29.0 | 0.00 | 0.00 | 0.00 | 57 | 1009.7 |
| 20260903152916 | 88 | 152 | 21.0 | 29.0 | 0.00 | 0.00 | 0.00 | 61 | 1009.8 |
| 20260903152013 | 88 | 149 | 22.0 | 31.0 | 0.00 | 0.00 | 0.00 | 59 | 1009.9 |
| 20260903151116 | 88 | 147 | 20.0 | 31.0 | 0.00 | 0.00 | 0.00 | 60 | 1009.8 |
| 20260903150213 | 87 | 148 | 18.0 | 28.0 | 0.00 | 0.00 | 0.00 | 61 | 1009.9 |
| 20260903145614 | 88 | 144 | 17.0 | 26.0 | 0.00 | 0.00 | 0.00 | 61 | 1010.0 |
| 20260903144717 | 89 | 152 | 17.0 | 29.0 | 0.00 | 0.00 | 0.00 | 60 | 1009.9 |